[[{"header":{"parameterUnit":"m.s-1","parameterCategory":1,"la1":30.2991,"la2":30.254,"lo1":-89.0895,"lo2":-89.0444,"dy":0.0017,"dx":0.0017,"nx":28,"ny":28,"refTime":"2023-08-06T09:00:00:Z","depth":0,"parameterNumber":2,"parameterNumberName":"U-component_of_WINDS"},"data":[0,0,0,0,0,0,0,0,0,0,0,0,0,0,0,0,0,0,0,0,0,0,0,0,0,0,0,0,0,0,0,0,0,0,0,0,0,0,0,0,0,0,0,0,0,0,0,0,0,0,0,0,0,0,0,0,0,0,1.1696,1.1698,0,1.189,1.1892,1.1894,1.1949,1.1947,1.1946,1.1945,1.2146,1.2152,1.2158,0,0,0,0,0,0,0,0,0,0,0,0,0,1.1373,1.1378,1.1695,1.1698,1.17,1.189,1.1892,1.1895,1.1949,1.1947,1.1946,1.1945,1.2144,1.2151,1.2159,0,0,0,0,0,0,0,0,0,0,0,0,0,1.1534,1.138,1.1695,1.175,1.1757,1.1889,1.1892,1.1896,1.1949,1.1947,1.1946,1.1944,1.2141,1.2151,1.216,1.2252,0,0,1.2189,1.2193,0,0,0,0,0,0,0,0,1.1525,1.1546,1.1739,1.1746,1.1754,1.1893,1.1852,1.2015,1.1949,1.1876,1.1945,1.1943,1.2063,1.2079,1.2119,1.2262,1.227,1.219,1.2196,1.22,1.2203,0,0,0,0,0,0,0,1.1514,1.1538,1.1773,1.1742,1.1751,1.1765,1.1787,1.1883,1.1977,1.1882,1.1887,1.1909,1.2067,1.211,1.2124,1.2273,1.219,1.2198,1.2204,1.2208,1.2503,1.2505,0,0,0,0,0,0,1.1493,1.1529,1.1766,1.1778,1.1633,1.1773,1.1796,1.185,1.1976,1.1993,1.191,1.1911,1.2095,1.2113,1.2132,1.2249,1.22,1.2209,1.2214,1.2501,1.2503,1.2505,0,0,0,0,0,0,1.1486,1.1514,1.1758,1.1655,1.1687,1.178,1.184,1.1855,1.1898,1.1997,1.2014,1.1937,1.2094,1.2118,1.2222,1.2257,1.2213,1.2222,1.2498,1.2501,1.2504,1.2484,0,0,0,0,0,0,1.1476,1.1511,1.1546,1.1655,1.1692,1.1845,1.1842,1.186,1.1914,1.1917,1.2026,1.2043,1.2095,1.2208,1.2232,1.2269,1.2229,1.2495,1.25,1.2503,1.2482,1.2486,1.2489,0,0,0,0,0,1.1465,1.1533,1.1548,1.1576,1.1738,1.1847,1.1868,1.1926,1.1917,1.1954,1.2017,1.2039,1.2249,1.2218,1.2245,1.2286,1.2494,1.2498,1.2503,1.248,1.2485,1.2489,0,0,0,0,0,0,1.1426,1.1548,1.1566,1.1671,1.1748,1.1856,1.1904,1.1929,1.201,1.201,1.2078,1.2102,1.2202,1.2254,1.2218,1.2383,1.2372,1.2382,1.2345,1.235,1.2354,1.234,1.2237,0,0,0,0,0,1.1429,1.1507,1.1609,1.1692,1.173,1.181,1.1859,1.1897,1.198,1.2013,1.2084,1.2164,1.2248,1.2302,1.2385,1.2489,1.2515,1.2531,1.2535,1.2537,1.2546,1.2607,1.2616,1.2521,1.2521,1.2521,0,0,1.1438,1.1514,1.1559,1.1686,1.1751,1.183,1.1837,1.192,1.198,1.2026,1.2129,1.2183,1.2277,1.2382,1.2432,1.2429,1.2578,1.2543,1.2545,1.2552,1.2612,1.2621,1.2629,1.2524,1.2523,1.2523,0,0,1.1494,1.1558,1.1636,1.17,1.1797,1.185,1.1868,1.1972,1.201,1.2114,1.2151,1.2223,1.2366,1.2432,1.2484,1.2565,1.2589,1.259,1.261,1.2669,1.2676,1.2683,1.2714,1.2723,1.2598,1.2598,1.2598,0,1.1492,1.1612,1.1672,1.1754,1.181,1.1854,1.1933,1.1993,1.2112,1.215,1.2144,1.2326,1.2392,1.2513,1.2533,1.2573,1.2598,1.2579,1.267,1.2678,1.2685,1.2715,1.2726,1.2598,1.2598,1.2598,1.2598,0,1.1606,1.1689,1.174,1.1854,1.1915,1.1995,1.2067,1.2122,1.2155,1.2209,1.2315,1.2396,1.2496,1.2527,1.256,1.2654,1.265,1.2656,1.2647,1.2693,1.2722,1.2734,1.2597,1.2597,1.2598,1.2598,0,0,1.1643,1.1789,1.1807,1.186,1.197,1.2036,1.2119,1.2217,1.2263,1.2344,1.2415,1.2536,1.2543,1.2602,1.2642,1.2693,1.2755,1.2694,1.2698,1.2704,1.2865,1.286,1.2872,1.2771,1.2773,1.2775,1.2857,0,1.1714,1.1863,1.1919,1.2041,1.2119,1.2163,1.2235,1.2311,1.2363,1.2438,1.2496,1.2581,1.2583,1.262,1.2672,1.2736,1.2788,1.273,1.2839,1.2842,1.2815,1.2887,1.2882,1.2956,1.2869,1.2871,1.2873,0,1.1816,1.1898,1.2028,1.213,1.2165,1.2229,1.2324,1.2394,1.2482,1.2516,1.2583,1.262,1.2709,1.2693,1.2817,1.2777,1.2825,1.2863,1.2867,1.288,1.2861,1.2904,1.2981,1.2993,1.2891,1.2889,1.2888,0,1.1832,1.1974,1.2071,1.2115,1.2236,1.228,1.2333,1.2418,1.2474,1.2557,1.2594,1.2686,1.2737,1.2808,1.287,1.2852,1.2989,1.2978,1.3021,1.302,1.3049,1.3047,1.3137,1.3078,1.3077,1.3077,1.3077,0,1.1906,1.1983,1.208,1.2139,1.2228,1.2293,1.2379,1.2435,1.2511,1.2583,1.2626,1.2692,1.2769,1.2845,1.2894,1.299,1.3013,1.3044,1.3056,1.3041,1.3037,1.3074,1.3071,1.308,1.308,1.3079,1.3078,0,1.1938,1.2006,1.2114,1.222,1.2249,1.231,1.2401,1.2461,1.2515,1.2605,1.263,1.2716,1.2808,1.2877,1.2996,1.3029,1.3132,1.3144,1.3103,1.3109,1.315,1.3145,1.3267,1.3287,1.3213,1.3214,1.3214,0,1.1981,1.2043,1.2155,1.2206,1.2259,1.234,1.2398,1.2463,1.2521,1.2626,1.2674,1.2769,1.2849,1.2995,1.3068,1.316,1.3176,1.3212,1.319,1.3173,1.3178,1.3174,1.3181,1.3215,1.3216,1.3216,1.3216,0,1.2051,1.2082,1.2163,1.2256,1.2323,1.2399,1.2476,1.2515,1.2595,1.2658,1.2753,1.2815,1.2937,1.3032,1.3131,1.3187,1.3216,1.3223,1.3238,1.3224,1.3198,1.3214,1.3113,1.322,1.322,1.3219,1.3219,1.3219,1.2092,1.2149,1.2237,1.2326,1.2391,1.2462,1.2524,1.2587,1.2667,1.2772,1.2806,1.2904,1.2991,1.3128,1.3184,1.3263,1.3262,1.3284,1.329,1.3294,1.3294,1.3184,1.3281,1.3281,1.3281,1.3281,1.3281,0,1.2165,1.2225,1.2306,1.2412,1.2483,1.2503,1.259,1.2647,1.2733,1.2812,1.289,1.3,1.3092,1.3173,1.3269,1.3316,1.3332,1.3339,1.3337,1.335,1.3288,1.3266,1.3325,1.3325,1.3325,1.3325,1.3325,1.3325,1.2212,1.231,1.2351,1.2482,1.2541,1.2638,1.2686,1.2752,1.2816,1.2936,1.3013,1.3065,1.3145,1.3247,1.3333,1.3354,1.3388,1.3393,1.3418,1.3359,1.3354,1.3349,1.3328,1.3399,1.3399,1.3473,1.3473,1.3474]},{"header":{"parameterUnit":"m.s-1","parameterCategory":1,"la1":30.2991,"la2":30.254,"lo1":-89.0895,"lo2":-89.0444,"dy":0.0017,"dx":0.0017,"nx":28,"ny":28,"refTime":"2023-08-06T09:00:00:Z","depth":0,"parameterNumber":3,"parameterNumberName":"V-component_of_WINDS"},"data":[0,0,0,0,0,0,0,0,0,0,0,0,0,0,0,0,0,0,0,0,0,0,0,0,0,0,0,0,0,0,0,0,0,0,0,0,0,0,0,0,0,0,0,0,0,0,0,0,0,0,0,0,0,0,0,0,0,0,6.1725,6.1726,0,6.1843,6.1845,6.1846,6.1817,6.1815,6.1813,6.1811,6.1921,6.1926,6.1931,0,0,0,0,0,0,0,0,0,0,0,0,0,6.1462,6.1467,6.1725,6.1726,6.1728,6.1843,6.1845,6.1846,6.1818,6.1815,6.1812,6.181,6.192,6.1925,6.1932,0,0,0,0,0,0,0,0,0,0,0,0,0,6.1578,6.1469,6.1724,6.1728,6.1729,6.1843,6.1845,6.1847,6.1818,6.1815,6.1812,6.1808,6.1918,6.1925,6.1932,6.2047,0,0,6.1955,6.1959,0,0,0,0,0,0,0,0,6.1571,6.1587,6.1726,6.1728,6.173,6.1812,6.1793,6.1914,6.1819,6.1784,6.1811,6.1807,6.1887,6.1897,6.1926,6.2052,6.2057,6.1956,6.1961,6.1964,6.1966,0,0,0,0,0,0,0,6.1563,6.1582,6.1771,6.1728,6.173,6.1719,6.1732,6.1815,6.1853,6.1787,6.1785,6.18,6.1887,6.1919,6.1929,6.2058,6.1956,6.1963,6.1967,6.197,6.2284,6.2287,0,0,0,0,0,0,6.1555,6.1576,6.1767,6.1775,6.1641,6.1727,6.1741,6.1789,6.1852,6.1858,6.1803,6.1798,6.1908,6.192,6.1932,6.2071,6.1964,6.1971,6.1975,6.228,6.2284,6.2289,0,0,0,0,0,0,6.155,6.1573,6.1763,6.1675,6.1698,6.1735,6.1789,6.1793,6.1825,6.1864,6.1869,6.1829,6.1906,6.1922,6.2019,6.2074,6.1974,6.1981,6.2275,6.2281,6.2286,6.2349,0,0,0,0,0,0,6.1542,6.1571,6.1618,6.1676,6.1703,6.1851,6.1793,6.1798,6.1839,6.1835,6.189,6.1896,6.1904,6.2008,6.2027,6.2083,6.1987,6.2271,6.2278,6.2285,6.2342,6.2356,6.2368,0,0,0,0,0,6.1533,6.1628,6.162,6.1643,6.1763,6.1855,6.187,6.188,6.1844,6.1889,6.1914,6.1894,6.2065,6.2019,6.2039,6.2098,6.2267,6.2276,6.2284,6.2336,6.2353,6.2368,0,0,0,0,0,0,6.157,6.1636,6.1628,6.1745,6.1795,6.185,6.1907,6.1898,6.1956,6.1948,6.1955,6.1968,6.2068,6.2092,6.2039,6.2212,6.2161,6.2174,6.2193,6.221,6.2222,6.2214,6.1994,0,0,0,0,0,6.1593,6.1666,6.1717,6.1815,6.1841,6.187,6.191,6.1915,6.1965,6.1985,6.2017,6.2064,6.2128,6.217,6.2231,6.2345,6.2356,6.2396,6.2409,6.2419,6.243,6.2492,6.2511,6.2317,6.2316,6.2316,0,0,6.1638,6.1683,6.1728,6.1824,6.1863,6.1935,6.1888,6.1966,6.2019,6.1995,6.2091,6.2116,6.2168,6.2275,6.2324,6.2299,6.2487,6.243,6.2438,6.2444,6.2503,6.2521,6.2538,6.2322,6.2321,6.232,0,0,6.1759,6.1801,6.1888,6.1929,6.1991,6.201,6.203,6.2087,6.2104,6.2201,6.2186,6.2246,6.2357,6.2395,6.2429,6.2565,6.2548,6.2584,6.2651,6.2712,6.2727,6.2741,6.2789,6.2807,6.2595,6.2595,6.2595,0,6.1807,6.192,6.1933,6.2014,6.2056,6.2042,6.2128,6.2166,6.2243,6.227,6.2242,6.2382,6.2415,6.2531,6.2565,6.2592,6.2615,6.2578,6.2725,6.2738,6.2751,6.2797,6.2816,6.2599,6.2599,6.2598,6.2598,0,6.1976,6.2053,6.2116,6.2195,6.2244,6.2326,6.2349,6.2396,6.2396,6.2416,6.2514,6.2555,6.2624,6.2652,6.265,6.2767,6.275,6.2723,6.2671,6.2774,6.2817,6.2835,6.2605,6.2603,6.2602,6.2601,0,0,6.2123,6.2211,6.2233,6.2269,6.2336,6.2395,6.2475,6.2548,6.2587,6.264,6.2707,6.2801,6.2778,6.2816,6.2818,6.2872,6.2977,6.2838,6.2839,6.2863,6.3107,6.3128,6.3148,6.2966,6.297,6.2972,6.3103,0,6.225,6.2399,6.2413,6.2544,6.2615,6.2603,6.2673,6.272,6.2742,6.2802,6.2823,6.2891,6.2854,6.2877,6.2929,6.2953,6.3026,6.2944,6.3026,6.3029,6.3014,6.3171,6.3193,6.3314,6.312,6.3123,6.3125,0,6.2419,6.2482,6.2622,6.268,6.271,6.2774,6.2841,6.29,6.2951,6.2963,6.3007,6.3003,6.3083,6.3028,6.3137,6.3081,6.3115,6.3132,6.3137,6.3145,6.3084,6.3183,6.3353,6.3372,6.3152,6.315,6.3148,0,6.2513,6.2632,6.2732,6.2762,6.2832,6.2878,6.2908,6.2957,6.2999,6.3056,6.3083,6.3147,6.3182,6.323,6.3242,6.3202,6.3352,6.3298,6.3361,6.3361,6.3394,6.3392,6.3572,6.3415,6.3415,6.3415,6.3414,0,6.2655,6.274,6.2775,6.2836,6.2931,6.2945,6.3037,6.3064,6.3108,6.3172,6.3163,6.3222,6.3234,6.3294,6.3304,6.3393,6.3408,6.3418,6.3419,6.3419,6.3418,6.3442,6.3434,6.3419,6.3418,6.3417,6.3417,0,6.2776,6.2803,6.2911,6.297,6.2986,6.3054,6.3102,6.3158,6.3179,6.3259,6.3279,6.3309,6.338,6.3397,6.348,6.3486,6.3592,6.3584,6.3576,6.3575,6.3638,6.3632,6.384,6.3868,6.3693,6.3695,6.3696,0,6.2865,6.2932,6.2999,6.3043,6.3077,6.3147,6.3192,6.3207,6.3252,6.3317,6.3366,6.3436,6.3494,6.3607,6.3634,6.3697,6.3691,6.376,6.3701,6.3699,6.3693,6.3689,6.3695,6.3771,6.3773,6.3775,6.3776,0,6.302,6.3031,6.3097,6.3169,6.3223,6.3279,6.3332,6.3368,6.3389,6.3441,6.3516,6.356,6.3647,6.3716,6.378,6.3807,6.3795,6.3795,6.3813,6.3813,6.3806,6.3811,6.3607,6.379,6.3788,6.3787,6.3786,6.3786,6.3128,6.3187,6.3245,6.3319,6.3361,6.3411,6.3469,6.3497,6.3561,6.3636,6.364,6.372,6.3769,6.3854,6.3885,6.3946,6.3924,6.3951,6.3957,6.3964,6.397,6.3796,6.3957,6.3957,6.3956,6.3956,6.3956,0,6.3283,6.332,6.3388,6.3466,6.3523,6.3511,6.3569,6.3617,6.369,6.3738,6.3796,6.3881,6.3948,6.3981,6.4047,6.409,6.4086,6.4106,6.4103,6.411,6.3985,6.3963,6.4109,6.4109,6.4109,6.4109,6.4109,6.4109,6.3371,6.347,6.3487,6.3607,6.3641,6.3724,6.3758,6.3803,6.3842,6.394,6.3997,6.402,6.4061,6.413,6.4191,6.4198,6.4223,6.4247,6.4251,6.4134,6.4119,6.4104,6.4083,6.4252,6.4252,6.4371,6.4373,6.4373]}]]